CAPE
156 212 164 74 84 456 321 324 296 400 596 760 755 868 842 983 1019 964 815 999 984 433 706 416 1519 1683 1124 1180 1597 1326 1369 1613 1247
229 384 314 98 86 124 308 313 350 451 627 655 535 633 748 821 1034 917 658 827 976 898 749 857 1149 1147 1123 1205 1238 1405 1196 1173 1032
274 335 238 121 105 130 207 456 438 475 603 688 469 456 615 777 1091 1148 1094 1274 1162 995 777 780 1190 1123 1380 1321 1150 1382 1320 982 878
378 206 147 142 185 169 224 435 504 565 624 618 556 392 403 484 549 822 1011 1014 895 1006 1079 1107 1013 1175 1243 1066 1163 1254 1204 1206 1275
453 279 98 142 151 267 264 430 557 570 685 632 554 424 408 432 522 583 682 1103 913 1078 1043 1075 1086 1197 1260 1195 1032 1093 1377 1279 752
465 315 122 57 117 340 373 492 628 738 796 770 669 444 505 379 401 517 556 863 885 1212 1159 1341 772 1181 1262 1158 1113 1156 1200 1261 1243
563 456 116 61 50 61 235 585 766 1049 947 932 957 714 380 485 627 555 488 615 787 1017 1207 1401 1344 1205 1399 1431 1334 1069 1157 1298 1309
775 323 345 20 24 104 226 538 557 1056 1103 1241 1289 1127 948 832 994 941 926 969 1025 928 1078 1298 1406 1304 1300 1271 1242 1182 1140 1225 1247
517 654 336 194 246 196 166 284 180 369 1112 1041 1398 1158 1214 1310 1141 1103 1172 1101 1086 1052 1149 1271 1270 1205 1177 1134 1128 424 530 687 1106
109 115 202 109 320 198 247 184 159 116 123 413 625 815 944 1099 1157 1220 1246 1409 1159 1137 1344 1072 910 992 992 1093 1234 356 217 237 468
133 62 55 124 79 152 132 178 68 93 104 28 125 528 621 753 879 1085 1177 1228 1157 1046 994 1190 603 1213 1008 770 816 234 194 108 350
95 92 52 50 39 55 91 113 148 55 20 20 15 164 443 453 848 453 624 1006 1184 1079 978 928 734 377 645 815 713 59 49 18 199
152 124 133 61 83 69 58 51 92 87 51 123 52 101 192 190 388 542 437 364 363 795 956 955 688 544 471 54 63 0 0 0 32
169 127 114 108 105 75 22 24 76 178 358 160 95 38 0 90 139 179 146 162 242 299 272 325 215 26 0 0 0 0 0 0 6
197 112 92 68 37 5 4 4 24 156 224 277 162 53 68 25 103 115 83 40 0 0 0 0 1 1 2 3 2 1 1 0 1
114 60 27 19 25 4 2 4 1 66 58 61 106 97 85 37 39 33 2 1 2 2 3 1 1 1 1 1 1 2 6 7 3
122 78 33 18 7 3 1 4 2 2 2 13 30 42 14 8 5 4 6 4 5 2 2 3 1 4 5 4 2 1 1 1 1
148 78 39 26 4 1 1 3 3 3 3 2 2 5 3 4 3 2 1 2 3 4 0 0 1 1 1 1 1 0 0 1 3
152 94 73 60 3 3 1 0 2 1 1 1 2 1 1 1 1 2 5 6 3 0 0 0 0 0 0 0 0 0 0 0 0
49 101 79 20 9 1 0 0 0 0 0 1 3 2 3 2 1 2 3 3 1 0 0 0 0 0 0 0 0 0 0 0 0
CIN
-8 -8 -9 -3 -5 -4 -19 -3 -3 -5 -1 -1 -1 -1 -1 -2 -2 -1 -1 -9 -4 -2 -5 -2 -10 -8 -1 0 0 -1 -1 -2 -5
-14 -4 -4 -14 -4 -6 -3 -4 -2 -3 -2 -2 -3 -2 -2 -4 -2 -1 -2 -4 -6 -2 -8 -5 -3 -1 -1 -2 -1 -1 -1 0 0
-3 -4 -28 -48 -5 -6 -4 -6 -3 -4 -3 -1 -2 -2 -2 -2 -1 -1 0 -2 -2 -4 -1 -5 -8 -6 -1 -1 -1 -1 -2 -1 -2
-3 -8 -25 -35 -10 -4 -2 -4 -4 -4 -3 -3 -2 -3 -1 -2 -2 -1 -1 -1 0 -1 -1 -1 -4 -1 -1 -1 -1 -1 -3 -1 -7
-8 -37 -31 -50 -79 -7 -9 -6 -7 -3 -4 -2 -1 -2 -1 -2 -2 -1 -2 -1 -1 -2 -10 -3 0 -1 0 -1 0 -1 0 -1 0
-3 -34 -87 -63 -79 -43 -6 -5 -4 -1 -2 -2 -2 -6 -3 -3 -1 -3 -3 -2 0 -2 -10 -1 -1 -1 -1 0 -1 -1 -2 -1 0
-1 -29 -92 -98 -110 -250 -32 -18 -14 -4 -2 -3 -2 -3 -4 -2 -2 -3 -2 -1 -1 -2 -2 -1 -1 0 -1 -2 -1 -1 -1 -3 -1
-1 -22 -24 -79 -106 -18 -46 -33 -48 -12 -10 -3 -3 -2 -2 -2 0 -1 -1 -1 -1 0 -1 0 0 -1 -2 -2 -5 -1 -4 -1 -4
-65 -1 -10 -42 -10 -56 -76 -25 -29 -32 -4 -25 -3 -1 -1 -1 -1 -1 -3 -3 -4 -1 -1 -1 0 -1 -1 -1 -1 -21 -10 -11 0
-193 -175 -44 -44 -22 -66 -53 -1 -29 -47 -42 -22 -12 -1 -3 -1 -1 -1 -1 -1 -4 -4 -1 -10 -11 -2 -1 -1 -1 -61 -89 -53 -17
-196 -256 -237 -143 -153 -43 -48 -33 -24 -16 -25 -38 -34 -1 -1 -2 -3 -1 -1 0 -1 -3 -5 -7 -15 -3 -3 -5 -2 -61 -99 -111 -43
-217 -207 -275 -281 -258 -212 -128 -64 -26 -69 -66 -70 -42 -22 -1 -7 -2 -13 -14 0 0 -1 -5 -2 -12 -44 -10 -1 -5 -145 -161 -99 -50
-162 -197 -193 -254 -187 -216 -161 -109 -102 -71 -30 -1 -1 -2 -1 -12 -8 -2 -9 -26 -14 -27 -13 -1 -13 -10 -10 -98 -43 0 0 0 -109
-138 -146 -171 -166 -158 -165 -246 -254 -154 -54 0 -8 -1 -10 -17 -13 -20 -12 -48 -46 -14 -19 -36 -5 -14 -52 0 0 0 0 0 0 -68
-78 -126 -162 -195 -224 -117 0 0 -163 -45 -23 -1 0 -10 -6 -20 -10 -26 -37 -84 -13 0 0 0 0 0 0 0 0 0 0 0 0
-53 -113 -166 -193 -215 0 0 0 0 -133 -133 -68 -50 -25 -8 -42 -47 -67 -9 -14 0 0 0 0 0 0 0 0 0 0 0 0 0
-50 -76 -126 -156 -90 0 0 0 0 0 0 -211 -150 -135 -178 0 0 0 0 0 0 0 0 0 0 0 0 0 0 0 0 0 0
-32 -101 -137 -128 0 0 0 0 0 0 0 0 0 0 0 0 0 0 0 0 0 0 0 0 0 0 0 0 0 0 0 0 0
-48 -69 -71 -90 -4 0 0 0 0 0 0 0 0 0 0 0 0 0 0 0 0 0 0 0 0 0 0 0 0 0 0 0 0
-103 -46 -59 -130 -128 -1 0 0 0 0 0 0 0 0 0 0 0 0 0 0 0 0 0 0 0 0 0 0 0 0 0 0 0
Wind_Speed
22 21 37 17 11 8 7 30 7 4 4 7 18 26 31 29 30 26 27 24 24 25 22 22 5 19 25 25 22 23 23 25 24
13 39 28 36 12 13 10 18 10 14 6 8 8 6 26 21 25 30 29 26 27 24 23 18 9 16 25 25 25 23 23 26 24
5 10 21 34 32 14 19 18 16 16 10 10 13 7 15 27 13 31 30 21 24 25 23 27 21 24 21 22 26 23 16 26 14
12 22 14 39 29 17 17 17 18 18 13 10 13 16 18 28 21 11 19 26 27 28 27 25 26 26 25 22 26 22 22 26 26
12 11 17 31 28 24 19 21 18 21 19 17 16 18 21 23 28 25 7 7 19 24 24 29 28 25 21 25 21 24 11 29 29
13 11 11 34 23 29 19 20 18 21 22 23 19 20 20 27 22 26 29 19 23 18 12 17 20 23 25 24 21 18 21 17 26
15 8 10 21 43 27 14 20 21 24 22 23 23 19 20 22 27 27 29 27 27 23 18 19 23 16 19 21 21 18 18 8 4
15 11 9 13 27 36 25 26 33 22 23 23 23 23 21 20 20 23 24 25 25 26 26 21 24 24 19 18 15 9 8 14 17
15 13 9 7 11 17 34 29 30 30 27 26 25 24 27 25 23 23 24 24 25 24 23 22 23 24 24 23 26 20 17 17 19
16 16 13 9 8 11 17 23 29 31 28 25 27 27 26 25 25 27 26 25 24 22 21 22 23 27 26 24 23 22 22 21 23
17 18 16 15 15 15 18 20 23 30 34 33 31 28 30 27 24 24 25 27 29 28 25 24 22 23 26 27 26 19 21 23 24
18 18 17 18 19 21 19 19 19 22 32 35 38 34 28 29 26 25 25 26 29 29 28 26 25 28 29 28 23 21 22 26 26
18 18 18 18 18 17 17 16 18 25 28 29 36 35 28 26 26 23 25 28 28 27 27 28 27 23 20 21 22 23 24 26 27
18 19 19 18 19 19 20 20 17 26 17 17 20 27 31 25 23 25 23 25 25 26 27 26 26 25 25 26 24 26 27 27 24
19 20 19 19 19 20 21 21 19 17 17 15 8 16 24 24 27 22 25 27 25 25 24 25 27 25 25 24 23 21 22 25 24
18 19 20 19 19 20 21 20 18 14 16 15 12 11 7 10 12 16 16 14 18 18 17 18 17 19 20 20 21 19 17 15 16
18 17 18 18 19 19 20 20 17 16 15 13 11 10 9 8 8 9 10 13 14 13 15 17 15 16 15 16 16 16 15 14 13
16 16 16 16 16 17 18 18 17 15 14 12 10 10 10 10 10 11 11 13 14 13 14 14 13 13 13 15 13 13 14 10 10
14 14 14 14 15 15 16 16 15 15 13 11 11 11 11 12 12 12 12 11 12 15 15 16 15 15 14 14 12 12 12 11 10
15 14 13 14 14 14 14 14 14 14 13 12 11 11 10 11 11 12 12 12 12 14 15 16 16 15 13 13 12 14 13 9 8
Wind_Direction
178 176 226 234 220 198 188 183 233 213 200 234 242 232 218 221 215 228 220 192 232 222 241 238 69 245 224 231 249 254 258 255 261
166 208 240 231 197 229 226 239 241 250 231 245 236 191 238 248 240 217 217 235 225 236 244 270 307 277 232 231 239 258 257 244 266
237 207 187 235 231 225 239 238 244 250 249 251 251 220 246 241 258 216 231 259 243 244 252 235 267 250 265 263 248 264 292 251 299
293 269 229 226 241 228 234 238 240 247 252 253 254 253 253 242 255 269 259 250 244 244 245 254 249 252 254 271 250 271 273 259 266
324 295 256 232 242 235 235 240 239 244 248 253 256 255 253 252 245 252 267 276 270 262 264 249 249 264 278 265 279 271 305 240 251
324 316 293 230 239 240 239 241 239 244 249 250 255 255 256 249 256 253 249 267 267 276 289 284 277 272 269 274 284 294 286 295 274
324 332 299 246 232 248 243 251 256 249 247 251 252 256 257 257 252 254 255 258 261 269 278 282 276 290 287 285 288 295 297 304 295
307 309 330 278 257 254 261 260 253 267 255 253 253 254 259 262 264 263 264 265 266 265 267 278 277 278 288 292 300 308 302 302 301
299 308 315 314 291 266 260 264 259 256 259 260 261 258 257 263 265 266 268 270 271 273 276 279 281 282 282 285 283 296 299 299 302
292 282 300 336 328 314 293 271 260 256 257 264 261 262 263 264 266 267 269 272 275 279 281 283 283 281 284 288 289 293 295 296 293
310 298 299 305 297 306 315 305 272 263 258 259 263 265 264 266 269 271 273 275 275 277 281 282 284 287 286 287 290 294 295 295 295
313 314 318 306 301 298 316 306 302 291 270 261 256 257 265 265 265 270 277 278 280 281 282 282 282 286 284 285 290 295 297 294 292
315 323 322 321 320 317 318 328 325 264 288 265 254 251 262 269 270 274 279 279 285 289 287 285 288 285 287 289 295 296 295 293 290
311 312 319 326 325 320 316 319 331 294 281 298 277 255 257 266 278 272 287 289 291 290 290 287 286 285 289 293 295 297 301 290 291
308 306 312 315 318 321 319 319 321 332 331 347 349 285 251 266 278 281 291 282 293 302 301 298 293 288 291 294 297 295 299 292 296
314 311 308 312 315 319 320 320 324 337 340 353 4 30 299 290 315 292 309 314 302 315 322 319 317 310 304 305 305 299 301 308 307
315 323 313 312 312 315 318 319 319 324 335 350 3 9 13 14 16 6 343 327 334 343 327 321 330 317 321 318 311 313 319 321 313
324 321 320 317 317 320 321 322 324 322 327 329 349 357 349 341 339 339 342 341 337 346 346 352 345 352 355 327 336 349 333 332 327
334 334 336 331 323 322 325 326 329 333 330 329 327 327 330 326 325 327 330 338 341 343 344 346 348 340 342 347 354 343 341 338 1
323 331 341 341 333 327 325 329 329 328 328 328 330 332 334 337 336 332 329 329 329 331 328 339 341 342 343 328 338 339 332 350 359